(2012 FW35) |
Classification: Apollo [NEO] SPK-ID: 3601675 |
[ hide orbit diagram ]
For accurate long-term ephemerides, please instead use our Horizons system.This orbit viewer was implemented using two-body methods, and hence should not be used for determining accurate long-term trajectories (over several years or decades) or planetary encounter circumstances.
Orbital Elements at Epoch 2456011.5 (2012-Mar-25.0) TDB
Reference: JPL 5 (heliocentric ecliptic J2000)
Element | Value | Uncertainty (1-sigma) | Units |
e | .5429888086320906 | 0.0040094 | |
a | 1.980475547521271 | 0.016382 | au |
q | .9050994894477085 | 0.00045535 | au |
i | 6.330340129809257 | 0.034416 | deg |
node | 188.681331409569 | 0.0030344 | deg |
peri | 49.66676612481069 | 0.0097088 | deg |
M | 345.1590095525185 | 0.20315 | deg |
tp | 2456053.467494154316 (2012-May-05.96749415) | 0.053833 | TDB |
period | 1018.011429157519 2.79 | 12.631 0.03458 | d yr |
n | .3536306073674703 | 0.0043878 | deg/d |
Q | 3.055851605594833 | 0.025277 | au |
|
| | Orbit Determination Parameters
Additional Information
|
[ show covariance matrix ]
Physical Parameter Table
Parameter |
Symbol |
Value |
Units |
Sigma |
Reference |
Notes |
absolute magnitude |
H |
26.4 |
|
n/a |
MPO230291 |
|
|
[ show close-approach data ]
|